Flag for U.S.A. Weather past 2 weeks in Flint, Michigan, U.S.A.

Now
31 °F

Overcast.


Feels Like: 22 °F
Forecast: 29 / 41 °F
Wind: 12 mph from Southeast

Location: Bishop International Airport

Current Time: Dec 22, 2014 at 1:37:01 AM

Latest Report: Dec 22, 2014 at 12:53 AM


Visibility: 6 mi

Pressure: 30.18 "Hg

Humidity: 76%

Dew point: 24 °F

Location of FlintLocation

Historic Weather in Flint — Graph

°F

Flint temperature yesterday

Maximum temperature yesterday: 35 °F (at 1:53 PM)
Minimum temperature yesterday: 21 °F (at 12:53 AM)
Average temperature yesterday: 30 °F

Past Weeks' High & Low Weather Summary

 TemperatureHumidityPressure
High52 °F (Dec 15, 1:53 PM)93% (Dec 13, 8:53 PM)30.74 "Hg (Dec 13, 8:53 PM)
Low18 °F (Dec 7, 6:53 AM)31% (Dec 7, 1:53 PM)29.68 "Hg (Dec 16, 12:53 PM)
Average34 °F77%30.18 "Hg
* Reported Dec 6 11:53 PM — Dec 21 11:53 PM, Flint, Weather by CustomWeather, © 2014

Note: Actual official high and low records may vary slightly from our data, if they occured in-between our weather recording intervals... More about our weather records

Advertising

Flint weather history for previous 24 hours

 ConditionsComfort  
Time TempWeatherWind HumidityBarometerVisibility
11:53 PM
Dec 21
32 °FOvercast.10 mph73%30.20 "Hg7 mi
10:53 PM32 °FOvercast.9 mph69%30.22 "Hg8 mi
9:53 PM32 °FOvercast.7 mph69%30.22 "Hg7 mi
8:53 PM33 °FOvercast.14 mph66%30.23 "Hg7 mi
7:53 PM33 °FOvercast.10 mph66%30.23 "Hg8 mi
6:53 PM33 °FOvercast.5 mph70%30.24 "Hg9 mi
5:53 PM33 °FOvercast.6 mph66%30.24 "Hg10 mi
4:53 PM34 °FOvercast.6 mph64%30.24 "Hg10 mi
3:53 PM34 °FOvercast.10 mph64%30.24 "Hg10 mi
2:53 PM35 °FOvercast.8 mph64%30.24 "Hg10 mi
1:53 PM35 °FOvercast.9 mph64%30.25 "Hg9 mi
12:53 PM34 °FMore clouds than sun.10 mph67%30.27 "Hg8 mi
11:53 AM33 °FMostly cloudy.7 mph70%30.30 "Hg7 mi
10:53 AM32 °FOvercast.7 mph73%30.32 "Hg6 mi
9:53 AM31 °FMostly cloudy.5 mph79%30.32 "Hg5 mi
8:53 AM30 °FOvercast.3 mph82%30.31 "Hg5 mi
7:53 AM29 °FMostly cloudy.3 mph82%30.32 "Hg6 mi
6:53 AM29 °FOvercast.3 mph82%30.32 "Hg6 mi
5:53 AM28 °FIce fog.3 mph85%30.32 "Hg5 mi
4:53 AM27 °FIce fog.3 mph85%30.31 "Hg6 mi
3:53 AM26 °FIce fog.No wind84%30.31 "Hg6 mi
2:53 AM24 °FIce fog.No wind84%30.31 "Hg6 mi
1:53 AM21 °FIce fog.No wind85%30.31 "Hg6 mi
Weather by CustomWeather, © 2014

See weather overviewHow to use our weather pages